Weather History for Las Vegas, NM

Change the Weather History Date:

Monday, July 14, 2014

  Actual Average Record
Temperature  
Mean Temperature 67 °F -  
Max Temperature 80 °F 84 °F 96 °F (2003)
Min Temperature 55 °F 54 °F 47 °F (1983)
Cooling Degree Days 2    
Growing Degree Days 17 (Base 50)    
Moisture  
Dew Point 53 °F    
Average Humidity 70    
Maximum Humidity 93    
Minimum Humidity 34    
Precipitation  
Precipitation 0.01 in - - ()
Sea Level Pressure  
Sea Level Pressure 30.12 in    
Wind  
Wind Speed 6 mph (NNE)    
Max Wind Speed 28 mph    
Max Gust Speed 36 mph    
Visibility 10 miles    
Events Rain    
Averages and records for this station are not official NWS values.
T = Trace of Precipitation, MM = Missing Value Source: NWS Daily Summary

Daily Weather History Graph

Daily Weather History Graph

Search for Another Location

Airport:

Trip Planner

Search our weather history database for the weather conditions in past years. The results will help you decide how hot, cold, wet, or windy it might be!

Date:

Astronomy

Jul. 14, 2014 Rise Set
Actual Time 5:55 AM MDT 8:16 PM MDT
Civil Twilight 5:26 AM MDT 8:46 PM MDT
Nautical Twilight 4:50 AM MDT 9:22 PM MDT
Astronomical Twilight 4:10 AM MDT 10:01 PM MDT
Moon 9:56 PM MDT (7/14) 8:34 AM MDT (7/14)
Length of Visible Light 15h 19m
Length of Day
14h 21m
Waning Gibbous, 92% of the Moon is Illuminated
Jul 14
Waning Gibbous
Jul 18
Last Quarter
Jul 26
New
Aug 3
First Quarter
Aug 10
Full

Hourly Weather History & Observations

Time (MDT) Temp. Dew Point Humidity Pressure Visibility Wind Dir Wind Speed Gust Speed Precip Events Conditions
12:53 AM 57.9 °F 55.9 °F 93% 30.09 in 10.0 mi WNW 5.8 mph - N/A   Clear
1:53 AM 57.0 °F 55.0 °F 93% 30.05 in 9.0 mi North 4.6 mph - N/A   Clear
2:53 AM 55.9 °F 53.1 °F 90% 30.13 in 10.0 mi NE 6.9 mph - N/A   Clear
3:53 AM 57.9 °F 53.1 °F 84% 30.12 in 10.0 mi Calm Calm - N/A   Clear
4:53 AM 57.0 °F 51.1 °F 81% 30.10 in 10.0 mi NW 3.5 mph - N/A   Clear
5:53 AM 59.0 °F 48.9 °F 69% 30.11 in 10.0 mi NNW 4.6 mph - N/A   Clear
6:53 AM 59.0 °F 52.0 °F 78% 30.13 in 10.0 mi NE 5.8 mph - N/A   Clear
7:53 AM 61.0 °F 53.1 °F 75% 30.12 in 10.0 mi NW 3.5 mph - N/A   Partly Cloudy
8:53 AM 66.9 °F 54.0 °F 63% 30.11 in 10.0 mi NE 3.5 mph - N/A   Clear
9:53 AM 71.1 °F 51.1 °F 49% 30.10 in 10.0 mi Variable 5.8 mph - N/A   Partly Cloudy
10:53 AM 70.0 °F 51.1 °F 51% 30.09 in 10.0 mi South 3.5 mph - N/A   Scattered Clouds
11:53 AM 71.1 °F 52.0 °F 51% 30.09 in 10.0 mi South 4.6 mph - N/A   Partly Cloudy
2:53 PM 77.0 °F 50.0 °F 39% 30.02 in 10.0 mi East 6.9 mph - N/A   Clear
4:53 PM 77.0 °F 46.9 °F 34% 29.99 in 10.0 mi NNW 4.6 mph - N/A   Clear
5:53 PM 79.0 °F 48.9 °F 35% 29.99 in 10.0 mi ENE 3.5 mph - N/A   Clear
6:53 PM 75.0 °F 53.1 °F 46% 30.00 in 10.0 mi East 5.8 mph - N/A   Overcast
7:53 PM 62.1 °F 55.9 °F 80% 30.09 in 10.0 mi ENE 27.6 mph 35.7 mph N/A   Mostly Cloudy
8:53 PM 60.1 °F 55.0 °F 83% 30.10 in 10.0 mi North 15.0 mph - N/A   Partly Cloudy
9:46 PM 60.1 °F 55.9 °F 86% 30.44 in 7.0 mi Calm Calm - 0.00 in Rain Light Rain
9:53 PM 60.1 °F 55.9 °F 86% 30.14 in 9.0 mi NE 5.8 mph - 0.01 in Rain Light Rain
10:39 PM 60.1 °F 55.0 °F 83% 30.45 in 10.0 mi NE 6.9 mph - 0.00 in   Overcast
10:53 PM 60.1 °F 55.0 °F 83% 30.16 in 10.0 mi NNE 4.6 mph - 0.00 in   Overcast
11:53 PM 59.0 °F 55.0 °F 87% 30.17 in 10.0 mi NNE 9.2 mph - N/A   Scattered Clouds